Regional Weather Roundup
Issued by NWS

Home | Current Version | Previous Version | Graphics & Text | Print | Product List | Glossary On
Versions: 1 2 3 4 5 6 7 8 9 10 11 12 13 14 15 16 17 18 19 20 21 22 23 24 25 26 27 28 29 30 31 32 33 34 35 36 37 38 39 40 41 42 43 44 45 46 47 48 49 50
000
ASUS43 KMPX 230201
RWRMN
WEATHER ROUNDUP FOR MINNESOTA
NATIONAL WEATHER SERVICE TWIN CITIES/CHANHASSEN MN
900 PM CDT SUN APR 22 2018


NOTE: "FAIR" INDICATES FEW OR NO CLOUDS BELOW 12,000 FEET WITH NO
SIGNIFICANT WEATHER AND/OR OBSTRUCTIONS TO VISIBILITY. N/A MEANS
CURRENT SKY AND/OR WEATHER CONDITIONS ARE NOT AVAILABLE.

MNZ060>063-068>070-230300-
   Twin Cities Metro

CITY           SKY/WX    TMP DP  RH WIND       PRES   REMARKS
TWIN CITIES    FAIR      59  38  45 S6        30.25R
ST PAUL        FAIR      54  36  50 SE5       30.25R
LAKEVILLE      FAIR      52  37  58 CALM      30.25R
EDEN PRAIRIE   FAIR      55  37  50 S5        30.24R
SOUTH ST PAUL  FAIR      55  35  47 CALM      30.24S
LAKE ELMO      FAIR      52  37  58 S3        30.26R
$$
MNZ001>005-007-008-013>017-022>024-027-028-230300-
   Northwest Minnesota

CITY           SKY/WX    TMP DP  RH WIND       PRES   REMARKS
BEMIDJI        CLOUDY    55  33  43 S8        30.17S
HALLOCK        FAIR      55  46  71 S8        30.08S
ROSEAU         FAIR      55  46  71 S9        30.10S
WARROAD        MOCLDY    54  45  71 SW6       30.11S
THIEF RVR FALL FAIR      52  41  66 S9        30.13F
CROOKSTON      FAIR      54  45  71 S9        30.13S
FOSSTON        MOCLDY    52  37  58 S15       30.16S
DETROIT LAKES  FAIR      50  34  53 S7        30.20S
MOORHEAD       FAIR      54  43  66 S12       30.17S
PARK RAPIDS    FAIR      48  36  63 SW6       30.19S
MAHNOMEN       FAIR      50  38  63 S12       30.17S
$$
MNZ006-009>011-018-025>026-230300-
   North Central Minnesota

CITY           SKY/WX    TMP DP  RH WIND       PRES   REMARKS
BAUDETTE       FAIR      52  39  61 S8        30.12S
FLAG ISLAND    FAIR      52  37  58 SW9       30.08S
INTL FALLS     FAIR      51  33  50 SW7       30.13S
WASKISH        CLOUDY    54  37  54 SW3       30.15S
BIG FORK       FAIR      46  30  53 SW5       30.18R
LONGVILLE      FAIR      54  32  43 S3        30.20S
GRAND RAPIDS   FAIR      51  32  48 S8        30.22R
CRANE LAKE     FAIR      37  25  60 CALM      30.18S
ORR            FAIR      52  25  35 S5        30.16R
COOK           FAIR      52  28  40 S3        30.19R
WALKER         FAIR      53  32  44 SW3       30.19R
$$
MNZ012-019>021-037-230300-
   Northeast Minnesota

CITY           SKY/WX    TMP DP  RH WIND       PRES   REMARKS
DULUTH         FAIR      50  28  42 S3        30.23R
ELY            FAIR      52  25  35 S5        30.19S
HIBBING        FAIR      50  27  40 S5        30.20R
EVELETH        FAIR      51  26  38 SW8       30.22S
DULUTH HARBOR  FAIR      37  30  75 CALM      30.25S
TWO HARBORS    FAIR      45  25  45 NW3       30.22R
SILVER BAY     FAIR      39  21  48 CALM      30.22R
GRAND MARAIS     N/A     35  26  69 NW5       30.25S WCI  31
G MARAIS ARPRT FAIR      43  18  36 CALM      30.23S
$$
MNZ029>031-032-039>041-046>048-054>057-064-230300-
   West Central Minnesota

CITY           SKY/WX    TMP DP  RH WIND       PRES   REMARKS
FERGUS FALLS   FAIR      46  37  71 S9        30.19R
WHEATON        CLEAR     50  36  57 S9        30.22S
MORRIS         CLEAR     46  41  81 S8        30.22S
ALEXANDRIA     FAIR      52  40  63 SW8       30.23S
ELBOW LAKE     FAIR      44  38  80 S7        30.21F
WADENA         FAIR      48  37  66 SW3       30.21S
GLENWOOD       FAIR      45  39  81 SW6       30.24S
APPLETON       CLEAR     50  37  62 S3        30.23S
BENSON         CLEAR     48  39  71 CALM      30.26R
ORTONVILLE     CLEAR     48  36  61 S7        30.22S
MADISON        CLEAR     48  43  81 S7        30.24R
WILLMAR        FAIR      48  43  81 CALM      30.27R
$$
MNZ033>034-036-042>043-049>051-058-059-230300-
   Central Minnesota

CITY           SKY/WX    TMP DP  RH WIND       PRES   REMARKS
ST CLOUD       FAIR      50  40  68 S3        30.23S
SAUK CENTRE    FAIR      47  40  77 S3        30.24R
PAYNESVILLE    FAIR      49  42  75 SW3       30.25R
AITKIN         FAIR      43  28  56 S5        30.21S
PINE RIVER     FAIR      48  34  57 S3        30.24S
BRAINERD       FAIR      51  32  48 S6        30.22S
STAPLES        FAIR      48  34  57 S5        30.22S
LONG PRAIRIE   FAIR      45  36  70 SE5       30.23S
LITTLE FALLS   FAIR      45  28  53 CALM      30.24R
LITCHFIELD     FAIR      52  43  71 CALM      30.25R
BUFFALO        FAIR      51  38  60 CALM      30.25R
MAPLE LAKE     FAIR      48  39  70 CALM      30.25R
HUTCHINSON     FAIR      48  45  90 CALM      30.26R
$$
MNZ037-044-045-052-053-230300-
   East Central Minnesota

CITY           SKY/WX    TMP DP  RH WIND       PRES   REMARKS
PRINCETON      FAIR      48  34  57 CALM      30.24S
MORA           FAIR      45  32  61 CALM      30.25S
CAMBRIDGE      FAIR      52  34  50 CALM      30.24S
RUSH CITY      MOCLDY    48  32  53 CALM      30.24S
MOOSE LAKE     FAIR      48  28  46 CALM      30.22R
HINCKLEY       FAIR      46  32  57 CALM      30.24S
CLOQUET        FAIR      54  23  30 SW3       30.23S
MCGREGOR       FAIR      48  32  53 S3        30.23S
$$
MNZ071>073-080-081-089-090-097-098-230300-
   Southwest Minnesota

CITY           SKY/WX    TMP DP  RH WIND       PRES   REMARKS
MONTEVIDEO     CLEAR     48  37  66 CALM      30.25R
GRANITE FALLS  CLEAR     46  41  82 S6        30.26R
CANBY          PTCLDY    47  41  80 E3        30.25R
MARSHALL       CLEAR     48  37  65 SE5       30.24S
REDWOOD FALLS  CLEAR     50  43  77 S3        30.24R
OLIVIA         CLEAR     50  43  76 SW5       30.24R
PIPESTONE      CLEAR    N/A N/A N/A SE5       30.22S
WINDOM         CLEAR     39  25  56 CALM      30.24S
WORTHINGTON    CLEAR     46  40  79 NE5       30.24R
JACKSON        CLEAR     37  34  87 CALM      30.24R
TRACY          CLEAR     45  39  81 CALM      30.24R
SLAYTON        CLEAR     45  38  77 CALM      30.24R
$$
MNZ065>067-074>077-082>085-091>093-230300-
   South Central Minnesota

CITY           SKY/WX    TMP DP  RH WIND       PRES   REMARKS
MANKATO        FAIR      53  41  63 CALM      30.24S
NEW ULM        CLEAR     48  41  76 CALM      30.24S
ST JAMES       CLEAR     45  39  81 CALM      30.24S
FAIRMONT       CLEAR     44  38  79 NE3       30.23S
GLENCOE        FAIR      53  44  73 CALM      30.24S
OWATONNA       FAIR      48  39  71 CALM      30.25R
WASECA         FAIR      46  41  81 E3        30.25S
ALBERT LEA     FAIR      50  37  62 NE3       30.24R
$$
MNZ078>079-086>088-094>096-230300-
   Southeast Minnesota

CITY           SKY/WX    TMP DP  RH WIND       PRES   REMARKS
ROCHESTER      FAIR      52  34  50 E5        30.25R
RED WING       FAIR      48  30  49 CALM      30.24S
STANTON        FAIR      50  41  71 CALM      30.24R
DODGE CENTER   FAIR      48  41  76 E3        30.25S
WINONA         FAIR      52  34  50 CALM      30.24R
AUSTIN         FAIR      50  39  66 E5        30.24R
PRESTON        FAIR      53  31  43 E6        30.25S
$$
ABBREVIATIONS USED IN REMARKS
   TC - TEMPERATURES IN CELSIUS
  WCI - WIND CHILL INDEX
   HX - HEAT INDEX
  VSB - VISIBILITY
$$




USA.gov is the U.S. government's official web portal to all federal, state and local government web resources and services.